Location: Newark
(49.2191°N, 12.6671°E)
Time: 01:16:07
(UTC+00:00)

Transit 4A - Pass Details

Date: 29 January 2020
Orbit: 872 x 973 km, 66.8° (Epoch: 19 February)

Event Time Altitude Azimuth Distance (km) Brightness Sun altitude
Rises 12:07:45 0° 325° (NW) 3,477 10.5 22.0°
Reaches altitude 10° 12:10:24 10° 332° (NNW) 2,532 9.8 21.9°
Maximum altitude 12:15:54 41° 42° (NE) 1,257 8.5 21.7°
Drops below altitude 10° 12:21:23 10° 112° (ESE) 2,533 10.3 21.5°
Sets 12:24:02 0° 120° (ESE) 3,478 11.1 21.4°
